Mesquite, TX

9:04 AM CDT on August 24, 2016 (GMT -0500)
Mesquite Metro

Weather History for KHQZ - October, 2012

Change the Weather History Date:

Saturday, October 6, 2012

  Actual Average (KDFW) Record (KDFW)
Temperature  
Mean Temperature 50 °F 71 °F  
Max Temperature 55 °F 81 °F 96 °F (1956)
Min Temperature 46 °F 60 °F 43 °F (1915)
Degree Days  
Heating Degree Days 14 1  
Month to date heating degree days 6  
Since 1 July heating degree days 12  
Cooling Degree Days 0 7  
Month to date cooling degree days 44  
Year to date cooling degree days 2621  
Moisture  
Dew Point 44 °F    
Average Humidity 72    
Maximum Humidity 82    
Minimum Humidity 58    
Precipitation  
Precipitation 0.00 in 0.11 in 3.44 in (1930)
Month to date precipitation 0.60  
Year to date precipitation 27.26  
Snow  
Snow 0.00 in 0.00 in 0.00 in ()
Month to date snowfall 0.0  
Since 1 July snowfall 0.0  
Since 1 September snowfall 0.0  
Snow Depth -    
Sea Level Pressure  
Sea Level Pressure 30.16 in    
Wind  
Wind Speed 11 mph (NNE)    
Max Wind Speed 15 mph    
Max Gust Speed 22 mph    
Visibility 10 miles    
Events      
T = Trace of Precipitation, MM = Missing Value Source: NWS Daily Summary

Daily Weather History Graph

Daily Weather History Graph

Search for Another Location

Airport or City:

Trip Planner

Search our weather history database for the weather conditions in past years. The results will help you decide how hot, cold, wet, or windy it might be!

Date:

Astronomy

Oct. 06, 2012 Rise Set
Actual Time 7:24 AM CDT 7:03 PM CDT
Civil Twilight 6:59 AM CDT 7:28 PM CDT
Nautical Twilight 6:30 AM CDT 7:56 PM CDT
Astronomical Twilight 6:02 AM CDT 8:25 PM CDT
Moon 11:34 PM CDT (10/6) 1:04 PM CDT (10/6)
Length of Visible Light 12h 28m
Length of Day
11h 39m
Waning Gibbous, 65% of the Moon is Illuminated
Oct 6
Waning Gibbous
Oct 8
Last Quarter
Oct 15
New
Oct 21
First Quarter
Oct 29
Full

Hourly Weather History & Observations

Time (CDT) Temp. Windchill Dew Point Humidity Pressure Visibility Wind Dir Wind Speed Gust Speed Precip Events Conditions
12:15 AM 55.4 °F - 46.4 °F 72% 30.11 in 10.0 mi North 11.5 mph 21.9 mph N/A   Overcast
12:35 AM 55.4 °F - 46.4 °F 72% 30.10 in 10.0 mi NNE 12.7 mph 21.9 mph N/A   Overcast
12:55 AM 55.4 °F - 46.4 °F 72% 30.11 in 10.0 mi NNE 12.7 mph - N/A   Overcast
1:15 AM 55.4 °F - 48.2 °F 77% 30.11 in 10.0 mi North 13.8 mph - N/A   Overcast
1:35 AM 55.4 °F - 46.4 °F 72% 30.12 in 10.0 mi North 11.5 mph 19.6 mph N/A   Overcast
1:55 AM 55.4 °F - 46.4 °F 72% 30.11 in 10.0 mi NNE 11.5 mph 18.4 mph N/A   Overcast
2:15 AM 55.4 °F - 46.4 °F 72% 30.11 in 10.0 mi North 15.0 mph 18.4 mph N/A   Overcast
2:35 AM 55.4 °F - 46.4 °F 72% 30.12 in 10.0 mi North 11.5 mph 17.3 mph N/A   Overcast
2:55 AM 55.4 °F - 46.4 °F 72% 30.12 in 10.0 mi North 10.4 mph - N/A   Overcast
3:15 AM 55.4 °F - 46.4 °F 72% 30.11 in 10.0 mi NNE 8.1 mph - N/A   Overcast
3:35 AM 55.4 °F - 46.4 °F 72% 30.11 in 10.0 mi North 8.1 mph - N/A   Overcast
3:55 AM 55.4 °F - 46.4 °F 72% 30.11 in 10.0 mi North 8.1 mph - N/A   Overcast
4:15 AM 55.4 °F - 46.4 °F 72% 30.11 in 10.0 mi North 11.5 mph 16.1 mph N/A   Overcast
4:35 AM 55.4 °F - 46.4 °F 72% 30.11 in 10.0 mi NNE 9.2 mph - N/A   Overcast
4:55 AM 55.4 °F - 46.4 °F 72% 30.11 in 10.0 mi NNE 9.2 mph - N/A   Overcast
5:15 AM 53.6 °F - 46.4 °F 77% 30.12 in 10.0 mi North 12.7 mph 18.4 mph N/A   Overcast
5:35 AM 53.6 °F - 46.4 °F 77% 30.13 in 10.0 mi North 12.7 mph 18.4 mph N/A   Overcast
5:55 AM 53.6 °F - 44.6 °F 72% 30.13 in 10.0 mi North 12.7 mph 17.3 mph N/A   Overcast
6:15 AM 53.6 °F - 44.6 °F 72% 30.15 in 10.0 mi NNE 10.4 mph 17.3 mph N/A   Overcast
6:35 AM 53.6 °F - 44.6 °F 72% 30.14 in 10.0 mi NNE 10.4 mph 16.1 mph N/A   Overcast
6:55 AM 51.8 °F - 44.6 °F 76% 30.15 in 10.0 mi North 12.7 mph 18.4 mph N/A   Overcast
7:15 AM 51.8 °F - 44.6 °F 76% 30.15 in 10.0 mi North 11.5 mph 16.1 mph N/A   Overcast
7:35 AM 51.8 °F - 44.6 °F 76% 30.16 in 10.0 mi North 10.4 mph 16.1 mph N/A   Overcast
7:55 AM 51.8 °F - 44.6 °F 76% 30.16 in 10.0 mi North 10.4 mph 16.1 mph N/A   Overcast
8:35 AM 50.0 °F - 44.6 °F 82% 30.16 in 10.0 mi North 11.5 mph - N/A   Overcast
9:15 AM 51.8 °F - 46.4 °F 82% 30.17 in 10.0 mi North 11.5 mph 17.3 mph N/A   Overcast
9:35 AM 51.8 °F - 46.4 °F 82% 30.17 in 10.0 mi North 8.1 mph - N/A   Overcast
9:55 AM 51.8 °F - 44.6 °F 76% 30.17 in 10.0 mi North 8.1 mph 16.1 mph N/A   Overcast
10:15 AM 51.8 °F - 44.6 °F 76% 30.18 in 10.0 mi North 10.4 mph 16.1 mph N/A   Overcast
10:35 AM 51.8 °F - 46.4 °F 82% 30.17 in 10.0 mi North 9.2 mph - N/A   Overcast
10:55 AM 51.8 °F - 46.4 °F 82% 30.17 in 10.0 mi North 9.2 mph - N/A   Overcast
11:15 AM 53.6 °F - 46.4 °F 77% 30.17 in 10.0 mi NNE 8.1 mph - N/A   Overcast
11:35 AM 53.6 °F - 46.4 °F 77% 30.17 in 10.0 mi NNE 8.1 mph - N/A   Overcast
11:55 AM 53.6 °F - 46.4 °F 77% 30.18 in 10.0 mi North 10.4 mph - N/A   Overcast
12:15 PM 53.6 °F - 46.4 °F 77% 30.18 in 10.0 mi North 9.2 mph - N/A   Overcast
12:35 PM 53.6 °F - 48.2 °F 82% 30.18 in 10.0 mi NNE 5.8 mph - N/A   Overcast
12:55 PM 53.6 °F - 46.4 °F 77% 30.17 in 7.0 mi North 8.1 mph - N/A   Overcast
1:15 PM 55.4 °F - 44.6 °F 67% 30.16 in 10.0 mi NNE 6.9 mph - N/A   Overcast
1:35 PM 55.4 °F - 44.6 °F 67% 30.16 in 10.0 mi NNE 8.1 mph - N/A   Overcast
1:55 PM 55.4 °F - 44.6 °F 67% 30.16 in 10.0 mi North 8.1 mph - N/A   Overcast
2:15 PM 55.4 °F - 44.6 °F 67% 30.15 in 10.0 mi NNE 8.1 mph - N/A   Overcast
2:35 PM 55.4 °F - 42.8 °F 63% 30.14 in 10.0 mi NNE 9.2 mph 18.4 mph N/A   Overcast
2:55 PM 55.4 °F - 41.0 °F 58% 30.13 in 10.0 mi North 10.4 mph 18.4 mph N/A   Overcast
3:15 PM 55.4 °F - 41.0 °F 58% 30.13 in 10.0 mi North 6.9 mph 19.6 mph N/A   Overcast
3:35 PM 55.4 °F - 41.0 °F 58% 30.13 in 10.0 mi North 9.2 mph - N/A   Overcast
3:55 PM 55.4 °F - 41.0 °F 58% 30.14 in 10.0 mi NNE 9.2 mph - N/A   Overcast
4:15 PM 53.6 °F - 39.2 °F 58% 30.14 in 10.0 mi North 10.4 mph - N/A   Overcast
4:35 PM 53.6 °F - 41.0 °F 62% 30.14 in 10.0 mi NNE 8.1 mph - N/A   Overcast
4:55 PM 53.6 °F - 39.2 °F 58% 30.15 in 10.0 mi NE 5.8 mph - N/A   Overcast
5:15 PM 53.6 °F - 39.2 °F 58% 30.14 in 10.0 mi NNE 6.9 mph - N/A   Overcast
5:35 PM 53.6 °F - 39.2 °F 58% 30.15 in 10.0 mi NNE 6.9 mph - N/A   Overcast
5:55 PM 53.6 °F - 41.0 °F 62% 30.15 in 10.0 mi North 10.4 mph 19.6 mph N/A   Overcast
6:15 PM 51.8 °F - 42.8 °F 71% 30.16 in 10.0 mi North 10.4 mph 20.7 mph N/A   Overcast
6:35 PM 51.8 °F - 41.0 °F 67% 30.16 in 10.0 mi North 13.8 mph 21.9 mph N/A   Overcast
6:55 PM 50.0 °F - 41.0 °F 71% 30.17 in 10.0 mi North 15.0 mph 19.6 mph N/A   Overcast
7:15 PM 50.0 °F - 41.0 °F 71% 30.18 in 10.0 mi North 11.5 mph 17.3 mph N/A   Overcast
7:35 PM 50.0 °F - 41.0 °F 71% 30.19 in 10.0 mi North 11.5 mph 17.3 mph N/A   Overcast
7:55 PM 50.0 °F - 41.0 °F 71% 30.20 in 10.0 mi North 11.5 mph 19.6 mph N/A   Overcast
8:15 PM 50.0 °F - 41.0 °F 71% 30.21 in 10.0 mi NNE 9.2 mph 17.3 mph N/A   Overcast
8:35 PM 50.0 °F - 41.0 °F 71% 30.21 in 10.0 mi NNE 10.4 mph 16.1 mph N/A   Overcast
8:55 PM 48.2 °F - 41.0 °F 76% 30.23 in 10.0 mi North 13.8 mph 18.4 mph N/A   Overcast
9:15 PM 48.2 °F - 41.0 °F 76% 30.24 in 10.0 mi North 12.7 mph 20.7 mph N/A   Overcast
9:35 PM 48.2 °F - 41.0 °F 76% 30.25 in 10.0 mi NNE 9.2 mph 20.7 mph N/A   Overcast
9:55 PM 46.4 °F 42.4 °F 41.0 °F 81% 30.23 in 10.0 mi NNE 8.1 mph 18.4 mph N/A   Overcast
10:15 PM 46.4 °F 42.9 °F 41.0 °F 81% 30.25 in 10.0 mi NNE 6.9 mph - N/A   Overcast
10:35 PM 46.4 °F 42.9 °F 41.0 °F 81% 30.26 in 10.0 mi NNE 6.9 mph - N/A   Overcast
10:55 PM 46.4 °F 41.5 °F 41.0 °F 81% 30.25 in 10.0 mi NNE 10.4 mph 16.1 mph N/A   Overcast
11:15 PM 46.4 °F 42.4 °F 39.2 °F 76% 30.25 in 10.0 mi NNE 8.1 mph 18.4 mph N/A   Overcast
11:35 PM 46.4 °F 42.4 °F 37.4 °F 71% 30.25 in 10.0 mi NNE 8.1 mph 16.1 mph N/A   Overcast
11:55 PM 46.4 °F 42.4 °F 37.4 °F 71% 30.26 in 10.0 mi NNE 8.1 mph - N/A   Overcast